Location: Kitchener
(43.4500°N, 80.5000°W)
Time: 05:24:46
(UTC-05:00)

Cosmos 1939 Rocket - Visible Passes

Search period start: 24 February 2017 00:00
Search period end: 06 March 2017 00:00
Orbit: 533 x 587 km, 97.5° (Epoch: 23 February)

Date Brightness Start Highest point End Pass type
(mag) Time Alt. Az. Time Alt. Az. Time Alt. Az.
24 Feb 4.9 19:49:01 15° NNE 19:49:01 15° NNE 19:49:54 10° NNE visible
24 Feb 6.1 21:24:57 10° NW 21:24:57 10° NW 21:24:57 10° NW visible
25 Feb 4.9 19:47:43 15° NNE 19:47:43 15° NNE 19:48:46 10° NNE visible
25 Feb 6.0 21:23:38 11° NW 21:23:38 11° NW 21:23:51 10° NW visible
26 Feb 4.8 19:46:25 16° NNE 19:46:25 16° NNE 19:47:36 10° NNE visible
26 Feb 5.9 21:22:19 12° NW 21:22:19 12° NW 21:22:44 10° NW visible
27 Feb 4.7 19:45:05 17° NNE 19:45:05 17° NNE 19:46:27 10° NNE visible
27 Feb 5.8 21:21:00 14° NW 21:21:00 14° NW 21:21:38 10° NW visible
28 Feb 4.7 19:43:46 17° NE 19:43:46 17° NE 19:45:17 10° NNE visible
28 Feb 5.7 21:19:42 15° NW 21:19:42 15° NW 21:20:32 10° NNW visible
01 Mar 4.6 19:42:28 18° NE 19:42:28 18° NE 19:44:08 10° NNE visible
01 Mar 5.6 21:18:23 16° NW 21:18:23 16° NW 21:19:25 10° NNW visible
02 Mar 4.5 19:41:09 18° NE 19:41:09 18° NE 19:42:58 10° NNE visible
02 Mar 5.5 21:17:04 18° NW 21:17:04 18° NW 21:18:19 10° NNW visible
03 Mar 4.5 19:39:50 18° NE 19:39:50 18° NE 19:41:48 10° NNE visible
03 Mar 5.4 21:15:45 19° NW 21:15:45 19° NW 21:17:12 10° NNW visible
04 Mar 4.5 19:38:31 19° NE 19:38:31 19° NE 19:40:38 10° NNE visible
04 Mar 5.3 21:14:27 21° NW 21:14:27 21° NW 21:16:06 10° NNW visible
05 Mar 4.4 19:37:13 19° NE 19:37:13 19° NE 19:39:28 10° NNE visible
05 Mar 5.2 21:13:08 23° NW 21:13:08 23° NW 21:14:59 10° NNW visible
